Regional Weather Roundup
Issued by NWS Sterling, VA

Home | Current Version | Previous Version | Graphics & Text | Print | Product List | Glossary On
Versions: 1 2 3 4 5 6 7 8 9 10 11 12 13 14 15 16 17 18 19 20 21 22 23 24 25 26 27 28 29 30 31 32 33 34 35 36 37 38 39 40 41 42 43 44 45 46 47 48 49 50
000
ASUS41 KLWX 271210
RWRLWX

REGIONAL WEATHER ROUNDUP
NATIONAL WEATHER SERVICE BALTIMORE MD/WASHINGTON DC
700 AM EST THU NOV 27 2014

Note: "FAIR" indicates few or no clouds below 12,000 feet
with no significant weather and/or obstructions to visibility.
 TC=TEMPERATURE CELSIUS

 * =Non NWS site. Station does not report precipitation (e.g. rain,
    snow, etc.), thunder, or fog.

DCZ001-MDZ009-015-VAZ040>042-051-053>054-271300-
WASHINGTON METRO

CITY           SKY/WX    TMP DP  RH WIND       PRES   REMARKS
WASHINGTON NAT MOCLDY    39  32  76 N5        30.04S
DULLES         LGT RAIN  34  33  96 CALM      30.03R
ANDREWS AFB    PTCLDY    33  31  94 CALM      30.02S
FT BELVOIR     CLOUDY    32  32 100 CALM      30.04R FOG
QUANTICO       CLOUDY    36  33  89 CALM      30.05S
COLLEGE PARK*  MOCLDY    34  34 100 CALM      30.04R
LEESBURG*      CLOUDY    36  36 100 N3        30.03S
GAITHERSBURG*  CLOUDY    32  30  93 W5        30.06R

$$

MDZ006>007-011-014-271300-
BALTIMORE METRO

CITY           SKY/WX    TMP DP  RH WIND       PRES   REMARKS
BWI AIRPORT    MOCLDY    35  31  85 VRB3      30.02S
MD SCIENCE CTR   N/A     36  30  79 MISG      30.03R
MARTIN STATE   MOCLDY    37  34  87 W7        30.05R
ANNAPOLIS      CLOUDY    34  31  88 SW3       30.03R
FORT MEADE*    CLOUDY    32  32 100 SW7       30.06R

$$

MDZ012-015-019>023-271300-
MARYLAND EASTERN SHORE

CITY           SKY/WX    TMP DP  RH WIND       PRES   REMARKS
OCEAN CITY     PTCLDY    35  32  88 CALM      30.03R
SALISBURY      PTCLDY    37  33  85 W3        30.03R
BAY BRIDGE AP*   N/A     37  30  75 NW6       30.03S
CAMBRIDGE*     PTCLDY    36  32  87 CALM      30.02S
EASTON*        PTCLDY    36  36 100 CALM      30.06S

$$

MDZ017>025-271300-
SOUTHERN MARYLAND

CITY           SKY/WX    TMP DP  RH WIND       PRES   REMARKS
PATUXENT RIVER CLEAR     34  31  88 W5        30.03S
ST INIGOES     MOCLDY    34  31  88 CALM      30.03S
LEONARDTOWN*   MOCLDY    32  32 100 CALM      30.04S

$$

MDZ003>005-271300-
NORTH CENTRAL MARYLAND

CITY           SKY/WX    TMP DP  RH WIND       PRES   REMARKS
FREDERICK*     CLOUDY    36  30  80 S3        30.06R
HAGERSTOWN APT CLOUDY    34  32  92 SE3       30.01S FOG
WESTMINSTER*   MOCLDY    30  28  93 NW3       30.01R

$$

MDZ501>502-271300-
WESTERN MARYLAND

CITY           SKY/WX    TMP DP  RH WIND       PRES   REMARKS
OAKLAND*       CLOUDY    27 N/A N/A W3        29.92R HAZE
CUMBERLAND*    CLOUDY    32  32 100 CALM      30.06R VSB 1/4

$$

VAZ025>031-271300-
SHENANDOAH VALLEY

CITY           SKY/WX    TMP DP  RH WIND       PRES   REMARKS
WINCHESTER*    FOG       32  30  93 CALM      30.01S VSB 1/4
FRONT ROYAL*   CLOUDY    32  30  93 CALM      30.01R VSB<1/4
LURAY*         FOG       32  32 100 CALM      30.01R VSB 1/4
NEW MARKET*    CLOUDY    28  28 100 CALM      30.00S
STAUNTON*      FOG       29  28  95 CALM      30.01R VSB 3/4
WAYNESBORO*    CLOUDY    30  30  99 CALM      29.98R

$$

WVZ021-048>050-054>055-271300-
EASTERN WEST VIRGINIA PANHANDLE

CITY           SKY/WX    TMP DP  RH WIND       PRES   REMARKS
MARTINSBURG    MOCLDY    34  30  85 CALM      30.02R FOG
PETERSBURG*    FOG       31  30  97 CALM      30.03R VSB 1/4

$$

VAZ036>039-050-271300-
CENTRAL FOOTHILLS

CITY           SKY/WX    TMP DP  RH WIND       PRES   REMARKS
CHARLOTTESVILL CLOUDY    34  32  92 SE3       30.00S FOG
CULPEPER*      CLOUDY    34  34 100 CALM      30.03S FOG
ORANGE*        CLOUDY    36  36 100 CALM      30.03R FOG
GORDONSVILLE*  FOG       34  33  99 CALM      30.02R VSB 1/2
WARRENTON*     CLOUDY    34  34 100 CALM      30.03R FOG

$$

VAZ055>057-271300-
NORTH AND CENTRAL PIEDMONT

CITY           SKY/WX    TMP DP  RH WIND       PRES   REMARKS
FREDERICKSBRG* FOG       36  36 100 CALM      30.03S VSB 1/2
STAFFORD*      FOG       33  33 100 CALM      30.07S VSB 3/4

$$

NCZ024-NYZ072-PAZ021-071-VAZ022-071-271300-
OTHER REGIONAL OBSERVATIONS

CITY           SKY/WX    TMP DP  RH WIND       PRES   REMARKS
NEW YORK CITY  CLOUDY    37  30  75 VRB3      29.98R
PHILADELPHIA   CLOUDY    36  30  80 NW5       30.01R
PITTSBURGH     CLOUDY    31  29  92 W3        30.01R FOG
ROANOKE        DRIZZLE   34  32  92 CALM      30.02R
RICHMOND       CLOUDY    39  36  89 CALM      30.03R
RALEIGH        CLOUDY    41  38  89 E5        30.00S

$$

ANZ530>537-271300-
MARINE OBSERVATIONS

STATION/POSITION TIME  TEMP    WIND        PRES
                       AIR SEA DIR/SP/G
                 (UTC) (F)     (DEG/KT/KT) (MB)
THOMAS PT LIGHT  1200   36 47  280/  5/  6 1018.2R
BALT KEY BRIDGE  1200   37     290/  7/  7 1016.8S
COVE POINT       1200   37     320/  7/  9 1016.7F
LEWISETTA        1200   37 47  230/  4/  4 1017.1R
SOLOMONS ISLAND  1200      49                N/A
PINEY POINT      1200          270/  6/  8   N/A

$$



USA.gov is the U.S. government's official web portal to all federal, state and local government web resources and services.